Location: Unspecified
(58.9933°N, 5.6375°E)
Time: 06:13:26
(UTC+02:00)

Cosmos 2058 - Visible Passes

Search period start: 28 July 2014 00:00
Search period end: 07 August 2014 00:00
Orbit: 572 x 593 km, 82.5° (Epoch: 27 July)

Date Brightness Start Highest point End Pass type
(mag) Time Alt. Az. Time Alt. Az. Time Alt. Az.
28 Jul 5.1 03:12:55 10° N 03:16:35 27° ENE 03:20:11 10° ESE visible
29 Jul 4.7 03:18:43 10° N 03:22:36 33° ENE 03:26:26 10° SE visible
30 Jul 6.2 01:49:46 10° NE 01:50:14 10° NE 01:50:42 10° NE visible
30 Jul 4.3 03:24:32 10° N 03:28:35 41° ENE 03:32:36 10° SE visible
31 Jul 5.9 01:54:37 10° NNE 01:56:23 12° NE 01:58:09 10° ENE visible
31 Jul 3.8 03:30:23 10° N 03:34:34 52° ENE 03:38:41 10° SSE visible
01 Aug 5.7 02:00:04 10° NNE 02:02:30 15° NE 02:04:55 10° E visible
01 Aug 3.3 03:36:15 10° N 03:40:30 67° ENE 03:44:41 10° SSE visible
02 Aug 5.6 02:05:41 10° N 02:08:36 18° NE 02:11:30 10° E visible
02 Aug 3.0 03:42:08 10° NNW 03:46:25 86° ENE 03:50:37 10° SSE visible
03 Aug 5.3 02:11:22 10° N 02:14:40 21° ENE 02:17:56 10° ESE visible
03 Aug 2.9 03:48:03 10° NNW 03:52:18 74° W 03:56:29 10° S visible
04 Aug 4.9 02:17:07 10° N 02:20:42 26° ENE 02:24:16 10° ESE visible
04 Aug 3.1 03:53:59 10° NNW 03:58:09 57° W 04:02:16 10° S visible
05 Aug 4.6 02:22:53 10° N 02:26:43 32° ENE 02:30:30 10° SE visible
05 Aug 3.4 03:59:57 10° NNW 04:03:59 44° W 04:07:58 10° SSW visible
06 Aug 4.1 02:28:41 10° N 02:32:42 40° ENE 02:36:40 10° SE visible
06 Aug 3.8 04:05:57 10° NNW 04:09:47 34° W 04:13:33 10° SSW visible
